Location: Champs
(48.8539°N, 2.6040°E)
Time: 09:15:07
(UTC+00:00)

USA 308 - Pass Details

Date: 01 June 2022
Orbit: 549 x 558 km, 54.0° (Epoch: 14 June)

Event Time Altitude Azimuth Distance (km) Brightness Sun altitude
Exits shadow 00:14:06 - 260° (W) 2,016 5.5 -18.9°
Reaches altitude 10° 00:14:33 10° 261° (W) 1,837 5.3 -18.9°
Maximum altitude 00:18:40 57° 341° (NNW) 658 3.4 -18.8°
Drops below altitude 10° 00:22:49 10° 61° (ENE) 1,849 6.0 -18.7°
Sets 00:25:06 0° 66° (ENE) 2,747 6.9 -18.6°
